Location: Ammerl�gen
(47.2167°N, 9.6000°E)
Time: 10:34:34
(UTC+00:00)

STPSAT 2 (USA 217) - Pass Details

Date: 21 April 2021
Orbit: 624 x 644 km, 72.0° (Epoch: 24 April)

Event Time Altitude Azimuth Distance (km) Brightness Sun altitude
Rises 20:50:11 0° 334° (NNW) 2,930 9.4 -21.8°
Reaches altitude 10° 20:52:27 10° 335° (NNW) 2,021 8.2 -22.1°
Maximum altitude 20:57:00 85° 63° (ENE) 643 4.5 -22.6°
Enters shadow 20:57:27 72° 140° (SE) 671 4.4 -22.6°
